Date String (YYYY-MM-DD hh:mm:ss) UTC,Instrument flags,absolute air pressure of the measurement (hPa),sample flow rate (lpm),inlet stack bypass flow (lpm),air temperature of the measurement (°C),ambient temperature measured by the external sensor (°C),aerosol sample conditioner tube jacket temperature (°C),OPC LED temperature (°C),internal box temperature (°C),relative humidity of the measurement (%),span deviation,mass concentration of particles derived from Lorenz-Mie calculation of OPC scattering (μg/m³),mass concentration of particles derived from Lorenz-Mie calculation of OPC scattering (μg/m³),mass concentration of particles derived from Lorenz-Mie calculation of OPC scattering (μg/m³)
DateTimeUTC,F1_M11,P_M11,Q1_M11,Q2_M11,T1_M11,T2_M11,T3_M11,T4_M11,T5_M11,U1_M11,ZSPAN_M11,X2_M11,X0_M11,X1_M11
2023-07-16 03:00:00,SystemResetWarning,0835.3,5.02,000.00,030.0,025.3,000.0,038.1,030.6,35.1,-000.9,0007.19,0016.85,0006.10
2023-07-16 03:01:00,SystemResetWarning,0835.3,4.98,000.00,030.2,025.8,000.0,038.1,030.8,34.6,-001.7,0007.12,0017.02,0006.07
2023-07-16 03:02:00,SystemResetWarning,0835.3,5.00,000.00,030.4,026.3,000.0,038.1,030.9,34.3,-001.8,0007.04,0016.75,0006.03
2023-07-16 03:03:00,SystemResetWarning,0835.3,5.01,000.00,030.5,026.7,000.0,038.2,030.9,34.1,-001.7,0006.99,0016.38,0006.01
2023-07-16 03:04:00,SystemResetWarning,0835.3,5.01,000.00,030.5,027.1,000.0,038.2,031.0,34.1,-002.1,0006.92,0016.26,0005.99
2023-07-16 03:05:00,SystemResetWarning,0835.2,5.00,000.00,030.6,027.4,000.0,038.3,031.1,34.1,-002.0,0006.88,0016.00,0005.97
2023-07-16 03:06:00,SystemResetWarning,0835.2,4.98,000.00,030.6,027.6,000.0,038.4,031.1,33.9,-002.3,0006.87,0014.81,0005.97
2023-07-16 03:07:00,SystemResetWarning,0835.2,5.00,000.00,030.6,027.8,000.0,038.4,031.2,33.8,-002.2,0006.88,0014.74,0005.98
2023-07-16 03:08:00,SystemResetWarning,0835.3,5.01,000.00,030.7,028.0,000.0,038.5,031.3,33.8,-002.4,0006.88,0015.05,0006.00
2023-07-16 03:09:00,SystemResetWarning,0835.3,5.01,000.00,030.7,028.0,000.0,038.5,031.3,33.8,-002.1,0006.93,0015.41,0006.02
2023-07-16 03:10:00,SystemResetWarning,0835.3,4.98,000.00,030.7,026.6,000.0,038.4,031.2,33.8,-001.9,0006.93,0014.70,0006.03
2023-07-16 03:11:00,SystemResetWarning,0835.3,5.02,000.00,030.7,025.6,000.0,038.3,031.0,33.9,-002.4,0007.01,0015.56,0006.04
2023-07-16 03:12:00,SystemResetWarning,0835.3,5.01,000.00,030.5,025.5,000.0,038.4,030.8,34.0,-002.1,0007.07,0014.92,0006.05
2023-07-16 03:13:00,SystemResetWarning,0835.4,5.00,000.00,030.4,025.9,000.0,038.4,030.8,34.3,-002.1,0007.09,0014.21,0006.06
2023-07-16 03:14:00,SystemResetWarning,0835.4,5.01,000.00,030.4,026.3,000.0,038.4,030.8,34.5,-002.1,0007.09,0014.15,0006.06
2023-07-16 03:15:00,SystemResetWarning,0835.4,5.00,000.00,030.3,026.7,000.0,038.5,030.9,34.6,-002.1,0007.14,0014.44,0006.08
2023-07-16 03:16:00,SystemResetWarning,0835.4,5.00,000.00,030.3,027.0,000.0,038.5,031.0,34.5,-001.9,0007.18,0015.28,0006.09
2023-07-16 03:17:00,SystemResetWarning,0835.4,4.99,000.00,030.3,027.3,000.0,038.5,031.1,34.6,-001.7,0007.20,0016.70,0006.10
2023-07-16 03:18:00,SystemResetWarning,0835.5,5.00,000.00,030.3,027.6,000.0,038.5,031.2,34.7,-002.0,0007.21,0017.12,0006.10
2023-07-16 03:19:00,SystemResetWarning,0835.5,5.01,000.00,030.4,027.8,000.0,038.5,031.2,34.8,-002.0,0007.24,0017.13,0006.11
2023-07-16 03:20:00,SystemResetWarning,0835.5,5.01,000.00,030.4,028.0,000.0,038.5,031.3,34.7,-002.0,0007.22,0016.73,0006.12
2023-07-16 03:21:00,SystemResetWarning,0835.5,5.00,000.00,030.4,028.2,000.0,038.6,031.3,34.6,-002.3,0007.24,0016.56,0006.14
2023-07-16 03:22:00,SystemResetWarning,0835.5,4.98,000.00,030.4,027.1,000.0,038.5,031.2,34.7,-002.6,0007.26,0016.01,0006.16
2023-07-16 03:23:00,SystemResetWarning,0835.5,5.01,000.00,030.3,025.8,000.0,038.3,031.0,34.8,-002.0,0007.30,0016.56,0006.18
2023-07-16 03:24:00,SystemResetWarning,0835.4,4.99,000.00,030.2,025.5,000.0,038.3,030.8,35.1,-002.0,0007.34,0016.54,0006.20
2023-07-16 03:25:00,SystemResetWarning,0835.4,5.03,000.00,030.2,025.8,000.0,038.3,030.8,35.3,-002.9,0007.39,0017.05,0006.22
2023-07-16 03:26:00,SystemResetWarning,0835.3,5.01,000.00,030.4,026.2,000.0,038.3,031.0,35.0,-002.8,0007.39,0017.19,0006.23
2023-07-16 03:27:00,SystemResetWarning,0835.5,4.98,000.00,030.6,026.6,000.0,038.4,031.1,34.3,-002.7,0007.37,0017.00,0006.24
2023-07-16 03:28:00,SystemResetWarning,0835.5,4.99,000.00,030.8,027.0,000.0,038.4,031.2,34.0,-002.5,0007.38,0016.14,0006.24
2023-07-16 03:29:00,SystemResetWarning,0835.5,5.02,000.00,030.9,027.3,000.0,038.5,031.3,33.9,-002.3,0007.39,0015.61,0006.25
2023-07-16 03:30:00,SystemResetWarning,0835.5,4.99,000.00,030.9,027.6,000.0,038.5,031.3,33.9,-002.0,0007.35,0015.22,0006.25
2023-07-16 03:31:00,SystemResetWarning,0835.5,4.99,000.00,031.0,027.8,000.0,038.6,031.4,33.8,-001.9,0007.42,0014.97,0006.26
2023-07-16 03:32:00,SystemResetWarning,0835.5,5.00,000.00,031.0,028.0,000.0,038.7,031.4,33.6,-001.7,0007.43,0015.47,0006.27
2023-07-16 03:33:00,SystemResetWarning,0835.5,5.00,000.00,031.0,027.4,000.0,038.7,031.4,33.4,-001.4,0007.43,0016.80,0006.27
2023-07-16 03:34:00,SystemResetWarning,0835.5,5.00,000.00,031.0,025.9,000.0,038.6,031.1,33.5,-001.6,0007.42,0017.23,0006.28
2023-07-16 03:35:00,SystemResetWarning,0835.6,5.01,000.00,030.9,025.4,000.0,038.6,030.9,33.6,-002.0,0007.43,0018.28,0006.29
2023-07-16 03:36:00,SystemResetWarning,0835.5,5.01,000.00,030.8,025.6,000.0,038.6,030.8,33.6,-001.7,0007.40,0018.26,0006.28
2023-07-16 03:37:00,SystemResetWarning,0835.5,5.01,000.00,030.7,026.0,000.0,038.7,030.9,33.3,-001.5,0007.40,0018.02,0006.26
2023-07-16 03:38:00,SystemResetWarning,0835.6,5.00,000.00,030.6,026.5,000.0,038.7,030.9,33.3,-001.3,0007.40,0017.66,0006.26
2023-07-16 03:39:00,SystemResetWarning,0835.6,5.00,000.00,030.6,026.8,000.0,038.7,031.0,33.3,-002.0,0007.38,0017.09,0006.25
2023-07-16 03:40:00,SystemResetWarning,0835.5,5.00,000.00,030.6,027.2,000.0,038.7,031.1,33.3,-002.6,0007.41,0017.21,0006.25
2023-07-16 03:41:00,SystemResetWarning,0835.5,5.01,000.00,030.6,027.5,000.0,038.8,031.2,33.3,-002.9,0007.40,0017.46,0006.24
2023-07-16 03:42:00,SystemResetWarning,0835.5,5.00,000.00,030.6,027.7,000.0,038.8,031.3,33.2,-002.8,0007.34,0016.93,0006.21
2023-07-16 03:43:00,SystemResetWarning,0835.5,4.99,000.00,030.6,027.9,000.0,038.8,031.3,33.2,-002.7,0007.32,0017.66,0006.20
2023-07-16 03:44:00,SystemResetWarning,0835.5,5.00,000.00,030.6,028.1,000.0,038.8,031.3,33.1,-001.2,0007.29,0017.24,0006.19
2023-07-16 03:45:00,SystemResetWarning,0835.5,4.99,000.00,030.6,028.2,000.0,038.8,031.4,32.9,-001.1,0007.24,0017.45,0006.16
2023-07-16 03:46:00,SystemResetWarning,0835.5,5.00,000.00,030.6,027.1,000.0,038.7,031.3,32.7,-000.2,0007.19,0018.02,0006.15
2023-07-16 03:47:00,SystemResetWarning,0835.5,5.01,000.00,030.5,025.8,000.0,038.6,031.0,32.7,0000.0,0007.18,0018.13,0006.15
2023-07-16 03:48:00,SystemResetWarning,0835.5,5.00,000.00,030.4,025.5,000.0,038.5,030.8,32.8,0000.0,0007.16,0018.15,0006.17
2023-07-16 03:49:00,SystemResetWarning,0835.5,5.01,000.00,030.3,025.7,000.0,038.5,030.7,33.1,0000.0,0007.19,0019.70,0006.18
2023-07-16 03:50:00,SystemResetWarning,0835.5,5.01,000.00,030.2,026.1,000.0,038.5,030.8,33.5,-001.5,0007.19,0020.88,0006.20
2023-07-16 03:51:00,SystemResetWarning,0835.6,5.00,000.00,030.2,026.5,000.0,038.5,030.9,33.8,-000.7,0007.21,0021.05,0006.22
2023-07-16 03:52:00,SystemResetWarning,0835.6,5.00,000.00,030.1,026.9,000.0,038.5,031.0,33.9,-000.7,0007.23,0020.87,0006.24
2023-07-16 03:53:00,SystemResetWarning,0835.6,5.00,000.00,030.1,027.2,000.0,038.5,031.0,34.0,-001.0,0007.26,0021.44,0006.26
2023-07-16 03:54:00,SystemResetWarning,0835.6,5.00,000.00,030.1,027.5,000.0,038.5,031.1,34.1,-001.5,0007.24,0020.94,0006.27
2023-07-16 03:55:00,SystemResetWarning,0835.6,5.00,000.00,030.1,027.7,000.0,038.5,031.2,34.0,-001.4,0007.28,0020.19,0006.30
2023-07-16 03:56:00,SystemResetWarning,0835.6,5.01,000.00,030.2,027.9,000.0,038.5,031.2,33.9,-001.1,0007.34,0019.46,0006.34
2023-07-16 03:57:00,SystemResetWarning,0835.6,5.00,000.00,030.2,028.1,000.0,038.5,031.3,33.8,-001.0,0007.38,0018.19,0006.37
2023-07-16 03:58:00,SystemResetWarning,0835.6,4.99,000.00,030.2,028.2,000.0,038.5,031.3,33.7,-001.0,0007.41,0018.47,0006.38
2023-07-16 03:59:00,SystemResetWarning,0835.6,4.99,000.00,030.2,027.7,000.0,038.5,031.3,33.7,-000.9,0007.43,0018.91,0006.39
